Home   Weather   Welland   Past weeks

Flag for Canada Past Weather in Welland, Ontario, Canada — Yesterday and Last 2 Weeks

Now
67 °F

Mild.


Feels Like: 67 °F
Forecast: 58 / 62 °F
Wind: 21 mph from East

Location: Port Colborne Airport

Current Time: Sep 29, 2016 at 1:08:10 AM

Latest Report: Sep 29, 2016 at 12:00 AM


Visibility: N/A

Pressure: 30.13 "Hg

Humidity: 61%

Dew Point: 53 °F

Location of WellandLocation

Past Weather in Welland — Graph

°F

Welland Temperature Yesterday

Maximum temperature yesterday: 72 °F (at 4:00 PM)
Minimum temperature yesterday: 64 °F (at 6:00 AM)
Average temperature yesterday: 68 °F

High & Low Weather Summary for the Past Weeks

 TemperatureHumidityPressure
High76 °F (Sep 21, 5:00 PM)91% (Sep 17, 6:00 PM)30.36 "Hg (Sep 17, 6:00 PM)
Low51 °F (Sep 25, 6:00 AM)32% (Sep 24, 5:00 PM)29.78 "Hg (Sep 27, 3:00 PM)
Average67 °F66%30.09 "Hg
* Reported Sep 14 12:00 AM — Sep 29 12:00 AM, Welland, Weather by CustomWeather, © 2016

Note: Actual official high and low records may vary slightly from our data, if they occured in-between our weather recording intervals... More about our weather records

Advertising

Welland Weather History for the Previous 24 Hours

Scroll right to see more
 ConditionsComfort  
Time TempWeatherWind HumidityBarometerVisibility
12:00 AM
Thu, Sep 29
67 °FMild.21 mph61%30.13 "HgN/A
11:00 PM
Wed, Sep 28
67 °FMild.12 mph61%30.12 "HgN/A
10:00 PM69 °FMild.24 mph57%30.10 "HgN/A
9:00 PM69 °FMild.16 mph43%30.08 "HgN/A
8:00 PM68 °FMild.10 mph40%30.06 "HgN/A
7:00 PM71 °FMild.12 mph38%30.04 "HgN/A
6:00 PM72 °FMild.12 mph42%30.02 "HgN/A
5:00 PM71 °FMild.15 mph40%30.01 "HgN/A
4:00 PM72 °FMild.15 mph52%30.01 "HgN/A
3:00 PM71 °FMild.14 mph47%30.01 "HgN/A
2:00 PM70 °FMild.15 mph44%30.02 "HgN/A
1:00 PM70 °FMild.15 mph43%30.01 "HgN/A
12:00 PM69 °FMild.15 mph50%30.01 "HgN/A
11:00 AM66 °FMild.16 mph52%30.00 "HgN/A
10:00 AM65 °FMild.21 mph52%29.98 "HgN/A
9:00 AM64 °FMild.24 mph51%29.96 "HgN/A
8:00 AM64 °FMild.22 mph57%29.96 "HgN/A
7:00 AM64 °FMild.17 mph56%29.95 "HgN/A
6:00 AM64 °FMild.17 mph54%29.94 "HgN/A
5:00 AM64 °FMild.16 mph57%29.92 "HgN/A
4:00 AM67 °FMild.15 mph46%29.90 "HgN/A
3:00 AM67 °FMild.18 mph45%29.89 "HgN/A
2:00 AM67 °FMild.17 mph51%29.89 "HgN/A
1:00 AM67 °FMild.20 mph47%29.88 "HgN/A
Weather by CustomWeather, © 2016

See weather overviewHow to use our weather pages